Home   Weather   Lørenskog   Past weeks

Flag for Norway Past Weather in Lørenskog, Norway — Yesterday and Last 2 Weeks

Now
29 °F

Fog.


Feels Like: 29 °F
Forecast: 29 / 34 °F
Wind: 1 mph from Northeast

Location: Oslo-Blindern

Current Time: Jan 21, 2017 at 11:05:58 pm

Latest Report: Jan 21, 2017 at 10:00 pm


Visibility: 19 mi

Pressure: 30.35 "Hg

Humidity: 97%

Dew Point: 29 °F

Location of LørenskogLocation

Past Weather in Lørenskog — Graph

°F

Lørenskog Temperature Yesterday

Maximum temperature yesterday: 41 °F (at 1:00 pm)
Minimum temperature yesterday: 34 °F (at 1:00 am)
Average temperature yesterday: 36 °F

High & Low Weather Summary for the Past Weeks

 TemperatureHumidityPressure
High42 °F (Jan 11, 3:00 am)100% (Jan 9, 1:00 pm)30.45 "Hg (Jan 9, 1:00 pm)
Low17 °F (Jan 16, 1:00 am)53% (Jan 15, 3:00 pm)28.50 "Hg (Jan 11, 4:00 pm)
Average30 °F88%29.87 "Hg
* Reported Jan 6 9:00 pm — Jan 21 9:00 pm, Lørenskog, Weather by CustomWeather, © 2017

Note: Actual official high and low records may vary slightly from our data, if they occured in-between our weather recording intervals... More about our weather records

Advertising

Lørenskog Weather History for the Previous 24 Hours

Scroll right to see more
 ConditionsComfort  
Time TempWeatherWind HumidityBarometerVisibility
9:00 pm
Sat, Jan 21
29 °FChilly.No wind96%30.36 "Hg28 mi
8:00 pm30 °FChilly.No wind96%30.36 "HgN/A
7:00 pm31 °FFog.2 mph93%30.36 "Hg16 mi
6:00 pm33 °FChilly.1 mph95%30.37 "Hg31 mi
5:00 pm34 °FChilly.1 mph92%30.37 "Hg25 mi
4:00 pm37 °FPartly sunny.2 mph85%30.36 "Hg25 mi
3:00 pm37 °FChilly.No wind82%30.36 "Hg19 mi
2:00 pm38 °FChilly.1 mph81%30.36 "Hg19 mi
1:00 pm41 °FPartly sunny.No wind78%30.36 "Hg16 mi
12:00 pm39 °FChilly.No wind85%30.38 "Hg31 mi
11:00 am34 °FChilly.3 mph92%30.38 "Hg31 mi
10:00 am32 °FPartly sunny.1 mph96%30.37 "Hg43 mi
9:00 am31 °FChilly.2 mph96%30.35 "Hg31 mi
8:00 am31 °FChilly.1 mph96%30.34 "Hg31 mi
7:00 am31 °FChilly.1 mph94%30.34 "Hg31 mi
6:00 am33 °FChilly.2 mph95%30.34 "Hg31 mi
5:00 am34 °FChilly.1 mph92%30.33 "Hg31 mi
4:00 am35 °FChilly.1 mph91%30.33 "Hg31 mi
3:00 am35 °FChilly.2 mph90%30.33 "Hg31 mi
2:00 am36 °FChilly.1 mph89%30.32 "Hg28 mi
1:00 am36 °FChilly.1 mph89%30.32 "Hg31 mi
12:00 am35 °FChilly.2 mph90%30.33 "Hg25 mi
11:00 pm
Fri, Jan 20
35 °FChilly.2 mph88%30.33 "Hg31 mi
Weather by CustomWeather, © 2017

See weather overviewHow to use our weather pages